NOAA 20 (JPSS-1)

Last updated on Thu Dec 18 2025 00:02:23 GMT+0000 (Coordinated Universal Time)

1 43013U 17073A 25351.57196778 .00000078 00000+0 57720-4 0 9994 2 43013 98.7604 287.8159 0002144 80.2569 279.8849 14.19527034418701
UTC large
Height (km)
Speed (km/s)
/
Latitude / Longitude
Inclination (degrees)
Orbital Period (minutes)
Azimuth
Elevation
Range (km)
Doppler Factor

Next 0 passes for location: London (51.5072 / 0.1276)

Sorry there are no passes over London.